St. George, UT

11:18 AM MDT on April 30, 2017 (GMT -0600)
Saint George Municipal

Weather History for KSGU - August, 2013

Change the Weather History Date:

Thursday, August 1, 2013

  Actual Average Record
Temperature  
Mean Temperature 92 °F -  
Max Temperature 102 °F 102 °F 111 °F (1969)
Min Temperature 82 °F 69 °F 56 °F (1932)
Cooling Degree Days 27    
Growing Degree Days 42 (Base 50)    
Moisture  
Dew Point 48 °F    
Average Humidity 23    
Maximum Humidity 35    
Minimum Humidity 14    
Precipitation  
Precipitation 0.00 in - - ()
Sea Level Pressure  
Sea Level Pressure 29.93 in    
Wind  
Wind Speed 10 mph (South)    
Max Wind Speed 30 mph    
Max Gust Speed 37 mph    
Visibility 10 miles    
Events      
Averages and records for this station are not official NWS values.
T = Trace of Precipitation, MM = Missing Value Source: NWS Daily Summary

Daily Weather History Graph

Daily Weather History Graph

Search for Another Location

Airport or City:

Trip Planner

Search our weather history database for the weather conditions in past years. The results will help you decide how hot, cold, wet, or windy it might be!

Date:

Astronomy

Aug. 01, 2013 Rise Set
Actual Time 6:39 AM MDT 8:40 PM MDT
Civil Twilight 6:10 AM MDT 9:09 PM MDT
Nautical Twilight 5:35 AM MDT 9:44 PM MDT
Astronomical Twilight 4:57 AM MDT 10:21 PM MDT
Moon 2:19 AM MDT (8/1) 4:52 PM MDT (8/1)
Length of Visible Light 14h 58m
Length of Day
14h 01m
Waning Crescent, 23% of the Moon is Illuminated
Aug 1
Waning Crescent
Aug 6
New
Aug 14
First Quarter
Aug 20
Full
Aug 28
Last Quarter

Hourly Weather History & Observations

Time (MDT) Temp. Heat Index Dew Point Humidity Pressure Visibility Wind Dir Wind Speed Gust Speed Precip Events Conditions
12:15 AM 87.8 °F - 46.4 °F 24% 29.98 in 10.0 mi SE 6.9 mph - N/A   Clear
12:35 AM 87.8 °F - 46.4 °F 24% 29.99 in 10.0 mi SSE 8.1 mph - N/A   Clear
12:55 AM 89.6 °F - 48.2 °F 24% 29.99 in 10.0 mi South 5.8 mph - N/A   Clear
1:15 AM 89.6 °F - 48.2 °F 24% 29.98 in 10.0 mi Calm Calm - N/A   Scattered Clouds
1:35 AM 89.6 °F - 48.2 °F 24% 29.98 in 10.0 mi SW 4.6 mph - N/A   Mostly Cloudy
1:55 AM 91.4 °F - 48.2 °F 23% 29.98 in 10.0 mi SSW 6.9 mph - N/A   Scattered Clouds
2:15 AM 89.6 °F - 48.2 °F 24% 29.98 in 10.0 mi WSW 8.1 mph - N/A   Mostly Cloudy
2:35 AM 91.4 °F - 48.2 °F 23% 29.98 in 10.0 mi WSW 8.1 mph 16.1 mph N/A   Partly Cloudy
2:55 AM 91.4 °F - 48.2 °F 23% 29.97 in 10.0 mi SSW 10.4 mph - N/A   Clear
3:15 AM 89.6 °F - 50.0 °F 26% 29.98 in 10.0 mi South 5.8 mph - N/A   Mostly Cloudy
3:35 AM 87.8 °F - 50.0 °F 27% 29.98 in 10.0 mi SE 10.4 mph - N/A   Mostly Cloudy
3:55 AM 87.8 °F - 50.0 °F 27% 29.98 in 10.0 mi ESE 12.7 mph 16.1 mph N/A   Mostly Cloudy
4:15 AM 86.0 °F - 50.0 °F 29% 29.98 in 10.0 mi SSE 9.2 mph - N/A   Mostly Cloudy
4:55 AM 84.2 °F - 51.8 °F 33% 29.97 in 10.0 mi SE 8.1 mph - N/A   Mostly Cloudy
5:15 AM 82.4 °F - 51.8 °F 35% 29.97 in 10.0 mi SE 9.2 mph - N/A   Scattered Clouds
5:35 AM 82.4 °F - 51.8 °F 35% 29.98 in 10.0 mi ESE 9.2 mph - N/A   Clear
5:55 AM 82.4 °F - 51.8 °F 35% 29.98 in 10.0 mi ESE 10.4 mph - N/A   Partly Cloudy
6:15 AM 82.4 °F - 51.8 °F 35% 29.98 in 10.0 mi ESE 11.5 mph - N/A   Mostly Cloudy
6:35 AM 82.4 °F - 51.8 °F 35% 29.99 in 10.0 mi SSE 8.1 mph - N/A   Scattered Clouds
6:55 AM 82.4 °F - 51.8 °F 35% 29.99 in 10.0 mi SE 10.4 mph - N/A   Partly Cloudy
7:15 AM 82.4 °F - 51.8 °F 35% 29.99 in 10.0 mi SE 11.5 mph - N/A   Partly Cloudy
7:35 AM 84.2 °F - 51.8 °F 33% 30.00 in 10.0 mi SE 8.1 mph - N/A   Mostly Cloudy
7:55 AM 84.2 °F - 51.8 °F 33% 30.01 in 10.0 mi SE 4.6 mph - N/A   Overcast
8:15 AM 84.2 °F - 51.8 °F 33% 30.01 in 10.0 mi ESE 3.5 mph - N/A   Scattered Clouds
8:35 AM 84.2 °F - 51.8 °F 33% 30.01 in 10.0 mi NE 5.8 mph - N/A   Clear
8:55 AM 87.8 °F 85.7 °F 53.6 °F 31% 30.01 in 10.0 mi ESE 5.8 mph - N/A   Partly Cloudy
9:15 AM 89.6 °F - 51.8 °F 27% 30.01 in 10.0 mi ESE 6.9 mph - N/A   Clear
9:35 AM 89.6 °F - 51.8 °F 27% 30.01 in 10.0 mi SE 5.8 mph - N/A   Clear
9:55 AM 91.4 °F - 51.8 °F 26% 30.00 in 10.0 mi SSE 4.6 mph - N/A   Clear
10:15 AM 91.4 °F - 51.8 °F 26% 30.00 in 10.0 mi South 8.1 mph - N/A   Clear
10:35 AM 93.2 °F - 51.8 °F 24% 29.99 in 10.0 mi East 6.9 mph - N/A   Clear
10:55 AM 93.2 °F - 51.8 °F 24% 29.99 in 10.0 mi ENE 3.5 mph - N/A   Clear
11:15 AM 93.2 °F - 51.8 °F 24% 29.98 in 10.0 mi Calm Calm - N/A   Clear
11:35 AM 95.0 °F - 51.8 °F 23% 29.98 in 10.0 mi SW 8.1 mph - N/A   Clear
11:55 AM 96.8 °F - 51.8 °F 22% 29.97 in 10.0 mi SW 16.1 mph - N/A   Clear
12:15 PM 96.8 °F - 51.8 °F 22% 29.96 in 10.0 mi SSW 11.5 mph 21.9 mph N/A   Clear
12:35 PM 100.4 °F - 51.8 °F 20% 29.95 in 10.0 mi SSW 24.2 mph 28.8 mph N/A   Scattered Clouds
12:55 PM 100.4 °F - 51.8 °F 20% 29.94 in 10.0 mi SW 29.9 mph 34.5 mph N/A   Partly Cloudy
1:15 PM 100.4 °F - 51.8 °F 20% 29.94 in 10.0 mi SSW 26.5 mph 36.8 mph N/A   Clear
1:35 PM 100.4 °F - 51.8 °F 20% 29.93 in 10.0 mi SSW 23.0 mph 33.4 mph N/A   Clear
1:55 PM 100.4 °F - 51.8 °F 20% 29.93 in 10.0 mi SW 21.9 mph 33.4 mph N/A   Clear
2:15 PM 102.2 °F - 51.8 °F 18% 29.92 in 10.0 mi SSW 24.2 mph 31.1 mph N/A   Clear
2:55 PM 100.4 °F - 50.0 °F 18% 29.90 in 10.0 mi SSW 17.3 mph 23.0 mph N/A   Scattered Clouds
3:15 PM 100.4 °F - 50.0 °F 18% 29.89 in 10.0 mi WSW 17.3 mph 24.2 mph N/A   Scattered Clouds
3:35 PM 100.4 °F - 50.0 °F 18% 29.89 in 10.0 mi SW 11.5 mph 21.9 mph N/A   Partly Cloudy
3:55 PM 100.4 °F - 50.0 °F 18% 29.87 in 10.0 mi WSW 8.1 mph - N/A   Partly Cloudy
4:15 PM 100.4 °F - 50.0 °F 18% 29.86 in 10.0 mi SSW 25.3 mph 28.8 mph N/A   Scattered Clouds
4:35 PM 102.2 °F - 50.0 °F 17% 29.85 in 10.0 mi SSW 16.1 mph 27.6 mph N/A   Partly Cloudy
4:55 PM 102.2 °F - 48.2 °F 16% 29.84 in 10.0 mi SSW 26.5 mph 31.1 mph N/A   Partly Cloudy
5:15 PM 102.2 °F - 48.2 °F 16% 29.84 in 10.0 mi SSW 17.3 mph 31.1 mph N/A   Partly Cloudy
5:35 PM 102.2 °F - 48.2 °F 16% 29.83 in 10.0 mi SSW 19.6 mph 28.8 mph N/A   Partly Cloudy
5:55 PM 102.2 °F - 48.2 °F 16% 29.83 in 10.0 mi SSW 20.7 mph 26.5 mph N/A   Partly Cloudy
6:15 PM 102.2 °F - 46.4 °F 15% 29.83 in 10.0 mi SW 21.9 mph 28.8 mph N/A   Clear
6:35 PM 102.2 °F - 46.4 °F 15% 29.82 in 10.0 mi SW 24.2 mph 28.8 mph N/A   Clear
6:55 PM 100.4 °F - 44.6 °F 15% 29.82 in 10.0 mi SW 17.3 mph - N/A   Clear
7:15 PM 100.4 °F - 46.4 °F 16% 29.82 in 10.0 mi SW 17.3 mph 26.5 mph N/A   Clear
7:35 PM 100.4 °F - 42.8 °F 14% 29.82 in 10.0 mi SSW 19.6 mph - N/A   Clear
7:55 PM 98.6 °F - 42.8 °F 15% 29.83 in 10.0 mi SSW 18.4 mph - N/A   Clear
8:15 PM 98.6 °F - 42.8 °F 15% 29.83 in 10.0 mi SSW 21.9 mph - N/A   Clear
8:35 PM 96.8 °F - 41.0 °F 15% 29.84 in 10.0 mi SW 12.7 mph - N/A   Clear
8:55 PM 96.8 °F - 41.0 °F 15% 29.84 in 10.0 mi SW 18.4 mph - N/A   Clear
9:15 PM 95.0 °F - 39.2 °F 14% 29.85 in 10.0 mi SW 13.8 mph - N/A   Clear
9:35 PM 93.2 °F - 39.2 °F 15% 29.86 in 10.0 mi SW 10.4 mph - N/A   Clear
9:55 PM 91.4 °F - 41.0 °F 17% 29.87 in 10.0 mi SSW 9.2 mph - N/A   Clear
10:15 PM 91.4 °F - 41.0 °F 17% 29.88 in 10.0 mi South 8.1 mph - N/A   Clear
10:35 PM 91.4 °F - 39.2 °F 16% 29.88 in 10.0 mi South 9.2 mph - N/A   Clear
10:55 PM 87.8 °F - 39.2 °F 18% 29.89 in 10.0 mi SSE 8.1 mph - N/A   Clear
11:15 PM 84.2 °F - 39.2 °F 20% 29.89 in 10.0 mi SSE 6.9 mph - N/A   Clear
11:35 PM 84.2 °F - 39.2 °F 20% 29.90 in 10.0 mi SSW 5.8 mph - N/A   Clear
11:55 PM 86.0 °F - 39.2 °F 19% 29.90 in 10.0 mi SSE 5.8 mph - N/A   Clear